Regional Weather Roundup
Issued by NWS

Home | Current Version | Previous Version | Graphics & Text | Print | Product List | Glossary On
Versions: 1 2 3 4 5 6 7 8 9 10 11 12 13 14 15 16 17 18 19 20 21 22 23 24 25 26 27 28 29 30 31 32 33 34 35 36 37 38 39 40 41 42 43 44 45 46 47 48 49 50
000
ASUS45 KBOU 301710
RWRCO

WEATHER ROUNDUP FOR COLORADO
NATIONAL WEATHER SERVICE DENVER/BOULDER CO
1100 AM MDT TUE JUN 30 2015

NOTE: "FAIR" INDICATES FEW OR NO CLOUDS BELOW 12000 FEET WITH NO
SIGNIFICANT WEATHER AND/OR OBSTRUCTIONS TO VISIBILITY.

COZ001>005-013-030-031-301800-
...NORTHWEST COLORADO...

CITY           SKY/WX    TMP DP  RH WIND       PRES   REMARKS
CRAIG          MOSUNNY   82  51  34 VRB3      30.24F
HAYDEN         PTSUNNY   75  46  35 E3        30.26F
MEEKER         SUNNY     81  49  32 VRB3      30.25F
MOUNT WERNER   NOT AVBL
STEAMBOAT SPGS PTSUNNY   73  49  43 CALM      30.29F
WALDEN         SUNNY     70  45  40 SE6       30.38F
$$

COZ006>008-011-301800-
...WEST CENTRAL VALLEYS...

CITY           SKY/WX    TMP DP  RH WIND       PRES   REMARKS
GRAND JUNCTION MOSUNNY   85  46  25 SE8       30.12F
MONTROSE       MOSUNNY   86  49  27 SE6       30.21F
EAGLE          SUNNY     75  45  33 CALM      30.30F
RIFLE          SUNNY     84  46  26 VRB3      30.18F
DELTA          MOSUNNY   88  47  23 CALM      30.16F
NUCLA          MOSUNNY   81  43  26 NW3       30.26F
$$

COZ017>023-064>068-301800-
...SOUTHWEST COLORADO...

CITY           SKY/WX    TMP DP  RH WIND       PRES   REMARKS
DURANGO        SUNNY     77  49  37 E5        30.30F
CORTEZ         SUNNY     85  48  27 NW3       30.22F
PAGOSA SPRINGS SUNNY     74  41  30 W6        30.40F
TELLURIDE      MOSUNNY   75  41  28 W7        30.50S
WOLF CREEK PAS NOT AVBL
$$

COZ009-010-012-014-032>034-037-058>063-301800-
...CENTRAL COLORADO...

CITY           SKY/WX    TMP DP  RH WIND       PRES   REMARKS
ASPEN          SUNNY     78  46  32 N6        30.36F
BUENA VISTA    MOSUNNY   72  44  36 E3        30.38F
COPPER MTN     SUNNY     64  30  27 W7G16     30.72S
BERTHOUD PASS  FAIR      54  45  71 MISG      30.77R
COTTONWOOD PAS NOT AVBL
GUNNISON       MOSUNNY   72  46  40 SE3       30.41F
KREMMLING      SUNNY     73  43  33 SW3       30.36F
LEADVILLE      SUNNY     72  28  19 N10G21    30.51F
MONARCH PASS   SUNNY     59  43  55 SW10      30.82S
SALIDA         MOSUNNY   76  50  39 CALM      30.42F
SUNLIGHT       SUNNY     70  43  37 CALM      30.65S
WILKERSON PASS SUNNY     63  37  39 CALM      30.67F
$$

COZ069>075-301800-
...SAN LUIS VALLEY/SANGRE DE CRISTO MOUNTAINS...

CITY           SKY/WX    TMP DP  RH WIND       PRES   REMARKS
ALAMOSA        SUNNY     73  48  41 MISG      30.37F
LA VETA PASS   SUNNY     64  43  45 MISG      30.56S
SAGUACHE       SUNNY     73  48  40 S9        30.41F
$$

COZ035-036-038>040-301800-
...NORTHERN COLORADO FRONT RANGE...

CITY           SKY/WX    TMP DP  RH WIND       PRES   REMARKS
DENVER INTL AP MOSUNNY   84  49  29 VRB3      30.16F
DMNS CITY PARK   N/A     88  48  25 E2        30.14F
AURORA         MOSUNNY   82  51  33 W2        30.18F
FRONT RANGE AP MOSUNNY   84  54  34 MISG      30.18F
ERIE MUNI ARPT SUNNY     85  47  26 S3        30.13F
BOULDER MUN AP SUNNY     84  54  34 CALM      30.14F
CENTENNIAL     MOSUNNY   82  48  30 CALM      30.19F
BROOMFIELD     PTSUNNY   84  50  30 VRB5      30.18F
FORT COLLINS   SUNNY     82  57  42 SE6       30.12F
LONGMONT       SUNNY     88  52  29 S3        30.14F
$$

COZ041-046-047-076>085-087-088-301800-
...PIKES PEAK/PALMER DIVIDE AND SOUTHERN FOOTHILLS...

CITY           SKY/WX    TMP DP  RH WIND       PRES   REMARKS
COLO. SPRINGS  MOSUNNY   78  52  40 S10       30.24F
A. F. ACADEMY  SUNNY     80  49  33 S8        30.25F
ELLICOTT       SUNNY    N/A N/A N/A S12       30.23F
FALCON         SUNNY     79  48  33 S12       30.30F
FORT CARSON    SUNNY     81  55  41 S10       30.21F
LIMON          SUNNY     82  54  37 S12       30.17F
MONUMENT HILL  SUNNY     77  45  31 CALM      30.30F
TRINIDAD       SUNNY     83  48  29 VRB5      30.21F
$$

COZ042>045-048>051-090-091-301800-
...NORTHEAST COLORADO...

CITY           SKY/WX    TMP DP  RH WIND       PRES   REMARKS
GREELEY ARPT   SUNNY     86  55  35 S6        30.11F
AKRON          SUNNY     85  56  37 SW8       30.11F
BURLINGTON     SUNNY     89  48  24 SW10      30.10F
WRAY           MOSUNNY   93  51  23 SW9       30.03F
STERLING       SUNNY     86  63  45 SW8       30.04F
HOLYOKE        MOSUNNY   93  61  33 SW8       30.02F
FORT MORGAN    SUNNY     84  54  35 SW5       30.10F
$$

COZ086-089-092>099-301800-
...SOUTHEAST COLORADO...

CITY           SKY/WX    TMP DP  RH WIND       PRES   REMARKS
PUEBLO         SUNNY     86  52  30 VRB3      30.13F
LA JUNTA       SUNNY     87  56  34 VRB5      30.10F
LAMAR          SUNNY     89  55  31 VRB5      30.06F
SPRINGFIELD      N/A     87  47  24 S13G26    30.13F
$$



USA.gov is the U.S. government's official web portal to all federal, state and local government web resources and services.